Weather History for KMCW - May, 2012

Change the Weather History Date:

Friday, May 25, 2012

  Actual Average Record
Temperature  
Mean Temperature 60 °F 61 °F  
Max Temperature 71 °F 73 °F 94 °F (1967)
Min Temperature 49 °F 50 °F 29 °F (1925)
Degree Days  
Heating Degree Days 5 5  
Month to date heating degree days 89 209  
Since 1 July heating degree days 6073 7609  
Cooling Degree Days 0 1  
Month to date cooling degree days 47 17  
Year to date cooling degree days 60 22  
Growing Degree Days 10 (Base 50)    
Moisture  
Dew Point 53 °F    
Average Humidity 69    
Maximum Humidity 93    
Minimum Humidity 44    
Precipitation  
Precipitation 0.17 in 0.16 in 2.08 in (1904)
Month to date precipitation 2.13 3.73  
Year to date precipitation 10.66 11.53  
Snow  
Snow 0.00 in 0.00 in - ()
Month to date snowfall 0.0 0.1  
Since 1 July snowfall 18.8 41.3  
Snow Depth 0.00 in    
Sea Level Pressure  
Sea Level Pressure 30.00 in    
Wind  
Wind Speed 5 mph (SSW)    
Max Wind Speed 12 mph    
Max Gust Speed 14 mph    
Visibility 8 miles    
Events Rain , Thunderstorm    
T = Trace of Precipitation, MM = Missing Value Source: NWS Daily Summary

Daily Weather History Graph

Daily Weather History Graph

Search for Another Location

Airport or City:

Trip Planner

Search our weather history database for the weather conditions in past years. The results will help you decide how hot, cold, wet, or windy it might be!

Date:

Astronomy

May. 25, 2012 Rise Set
Actual Time 5:40 AM CDT 8:40 PM CDT
Civil Twilight 5:06 AM CDT 9:14 PM CDT
Nautical Twilight 4:23 AM CDT 9:58 PM CDT
Astronomical Twilight 3:32 AM CDT 10:49 PM CDT
Moon 9:42 AM CDT (5/25) No Moon Set
Length of Visible Light 16h 08m
Length of Day
15h 00m
Waxing Crescent, 20% of the Moon is Illuminated
May 25
Waxing Crescent
May 28
First Quarter
Jun 4
Full
Jun 11
Last Quarter
Jun 19
New

Hourly Weather History & Observations

Time (CDT) Temp. Dew Point Humidity Pressure Visibility Wind Dir Wind Speed Gust Speed Precip Events Conditions
12:53 AM 50.0 °F 48.0 °F 93% 29.78 in 10.0 mi West 6.9 mph - N/A   Clear
1:53 AM 51.1 °F 48.0 °F 89% 29.80 in 9.0 mi West 6.9 mph - N/A   Clear
2:53 AM 52.0 °F 48.9 °F 89% 29.83 in 9.0 mi West 5.8 mph - N/A   Clear
3:53 AM 50.0 °F 48.0 °F 93% 29.87 in 7.0 mi SW 6.9 mph - 0.01 in   Clear
4:53 AM 52.0 °F 48.9 °F 89% 29.91 in 10.0 mi SW 5.8 mph - N/A   Clear
5:53 AM 50.0 °F 48.0 °F 93% 29.92 in 5.0 mi West 6.9 mph - N/A   Clear
6:53 AM 53.1 °F 50.0 °F 89% 29.94 in 6.0 mi West 4.6 mph - N/A   Clear
7:53 AM 57.9 °F 53.1 °F 84% 29.98 in 10.0 mi SSW 4.6 mph - N/A   Clear
8:53 AM 62.1 °F 54.0 °F 75% 29.98 in 10.0 mi South 4.6 mph - N/A   Clear
9:53 AM 64.9 °F 50.0 °F 58% 29.98 in 10.0 mi SW 5.8 mph - N/A   Clear
10:53 AM 68.0 °F 48.9 °F 50% 30.00 in 10.0 mi WNW 4.6 mph - N/A   Clear
11:53 AM 70.0 °F 46.9 °F 44% 30.03 in 10.0 mi Calm Calm - N/A   Partly Cloudy
12:53 PM 69.1 °F 48.9 °F 49% 30.03 in 10.0 mi SE 5.8 mph - N/A   Partly Cloudy
1:53 PM 68.0 °F 48.9 °F 50% 30.08 in 10.0 mi SW 8.1 mph - N/A   Mostly Cloudy
2:53 PM 66.9 °F 52.0 °F 59% 30.04 in 10.0 mi South 3.5 mph - 0.00 in Rain Light Rain
3:46 PM 64.4 °F 55.4 °F 73% 30.09 in 6.0 mi SW 6.9 mph - 0.01 in Rain , Thunderstorm Light Thunderstorms and Rain
3:53 PM 63.0 °F 55.9 °F 78% 30.06 in 4.0 mi Calm Calm - 0.02 in Rain , Thunderstorm Light Thunderstorms and Rain
3:59 PM 62.6 °F 55.4 °F 77% 30.06 in 2.5 mi Calm Calm - 0.02 in Rain Rain
4:19 PM 62.6 °F 57.2 °F 82% 30.06 in 2.5 mi Calm Calm - 0.10 in Rain , Thunderstorm Thunderstorms and Rain
4:28 PM 62.6 °F 57.2 °F 82% 30.07 in 3.0 mi Calm Calm - 0.11 in Rain Rain
4:42 PM 60.8 °F 57.2 °F 88% 30.09 in 4.0 mi Calm Calm - 0.12 in Rain , Thunderstorm Light Thunderstorms and Rain
4:53 PM 62.1 °F 57.0 °F 84% 30.07 in 3.0 mi Calm Calm - 0.14 in Rain , Thunderstorm Light Thunderstorms and Rain
5:10 PM 62.6 °F 57.2 °F 82% 30.07 in 9.0 mi SE 3.5 mph - 0.00 in   Overcast
5:53 PM 63.0 °F 57.0 °F 81% 30.06 in 10.0 mi ESE 5.8 mph - 0.00 in   Overcast
6:53 PM 64.0 °F 55.9 °F 75% 30.05 in 10.0 mi East 5.8 mph - N/A   Unknown
7:53 PM 62.1 °F 57.0 °F 84% 30.06 in 10.0 mi East 4.6 mph - N/A   Overcast
8:53 PM 63.0 °F 57.0 °F 81% 30.06 in 10.0 mi ENE 3.5 mph - N/A   Overcast
9:53 PM 62.1 °F 57.0 °F 84% 30.05 in 9.0 mi East 8.1 mph - 0.00 in Rain Light Rain
10:53 PM 61.0 °F 57.0 °F 87% 30.05 in 9.0 mi ENE 9.2 mph - 0.00 in   Overcast
11:53 PM 61.0 °F 57.0 °F 87% 30.07 in 9.0 mi ENE 8.1 mph - N/A   Overcast